sat.trackr.live / text

‹ back to catalog

STARLINK-5644

NORAD 55369 · 2023-013AQ

PAYLOAD ACTIVE UNKNOWN

§ Identity

Operator
Country
US
Launch date
2023-01-26
Launch site
AFETR
Launch vehicle
Mass (kg)
RCS (m²)

Purposes: comms

External: N2YO · Heavens-Above · Gunter

§ Orbital elements

Epoch: 2026-09-20T03:09:03.419712Z

Period
94.27 min
Inclination
43.0006°
Eccentricity
0.0001174
Mean motion
15.27573020 rev/d
Perigee alt
482.3 km
Apogee alt
483.9 km
Semi-major
6,861.2 km
B*
-2.3266e-5
RAAN
303.1661°
Arg perigee
264.5841°
Mean anomaly
95.4877°
Rev number
20,120

§ Raw data

STARLINK-56441 55369U 23013AQ  26263.13128958 -.00000902  00000+0 -23266-4 0  99982 55369  43.0006 303.1661 0001174 264.5841  95.4877 15.27573020201203

JSON: /api/v1/satellites/55369 · /tle

For live sub-satellite position, see the globe view (requires WebGL).

§ Visibility from observer

Set your observer location to see the next 7 days of passes ≥ 10°. The values pass through the URL so the page stays shareable.

No JS? Fill the form by hand. The geolocation button needs JavaScript.